Theta_e
353 353 352 349 349 349 352 353 354 346 345 342 342 341 339 337 333 331 333 333 339 345 347 343 344 356 355 353 355 356 355 358 362 360 359 355 353 352 351 353 354 360 360 361 362 361 360 360 358 358 357 356 354 353 353 354 354 353 352 352 350 351 353 354 356 354 352 348 346 347 350 350 348 347
355 356 355 353 350 352 351 348 350 351 352 349 344 344 344 343 338 335 332 331 340 344 349 346 346 352 355 356 357 361 361 363 361 359 356 352 350 350 349 350 352 356 356 357 359 360 359 357 355 355 354 352 350 350 350 351 351 351 349 350 348 348 349 351 354 354 352 348 346 347 350 349 348 347
357 355 354 352 350 350 350 352 352 352 352 350 348 346 346 348 344 341 337 331 338 350 346 348 353 354 353 356 356 356 357 357 357 355 352 351 354 353 353 351 352 352 353 354 356 358 356 355 353 351 349 348 347 347 347 348 348 348 347 346 345 343 345 347 351 354 352 348 347 348 349 349 348 348
357 354 352 352 352 352 352 352 353 354 353 353 349 348 349 349 347 345 341 337 337 346 350 350 354 356 355 356 354 353 356 358 358 355 353 354 356 351 353 351 351 351 351 352 352 351 352 350 350 349 346 345 345 346 345 344 344 343 343 342 339 338 340 344 350 353 352 349 347 348 349 350 349 349
356 354 353 354 355 354 353 352 352 352 351 350 350 348 346 349 350 348 344 340 341 345 353 354 354 356 354 351 355 354 354 354 355 357 355 356 351 352 352 351 349 349 349 349 348 347 348 347 347 346 344 343 343 342 340 338 337 338 338 336 334 334 337 341 347 350 352 350 348 348 349 350 350 349
356 356 354 354 354 354 354 353 352 351 350 350 347 347 350 349 352 353 347 344 342 341 345 350 354 356 359 352 355 354 353 353 357 353 354 356 355 352 351 349 350 347 348 347 346 345 344 342 342 344 343 342 340 339 336 333 332 334 334 332 331 333 335 336 341 346 348 352 350 347 348 350 351 350
355 355 355 356 356 357 354 352 351 351 351 350 348 348 350 348 349 353 353 347 344 344 344 349 350 352 354 353 352 354 355 356 355 352 354 355 354 354 354 350 350 345 346 345 344 343 340 339 339 339 338 339 337 335 332 329 328 329 329 328 329 330 330 330 334 341 344 347 351 348 348 349 349 350
356 356 356 356 356 355 352 351 351 352 351 350 351 351 351 350 349 351 354 353 348 346 344 346 351 353 350 350 355 358 358 354 354 354 356 354 351 352 352 351 349 346 345 345 343 342 339 336 335 335 334 333 331 329 328 327 326 326 327 327 327 328 327 326 328 332 335 339 342 347 346 347 349 350
357 354 350 350 350 351 350 352 352 351 349 350 350 348 349 351 352 354 356 354 352 348 347 346 350 352 351 352 354 356 353 353 352 352 351 355 350 349 352 353 351 346 344 344 343 339 337 336 334 333 332 330 329 328 328 326 325 325 323 323 325 327 326 325 325 327 328 329 334 340 343 344 345 345
349 349 349 347 347 348 349 351 352 352 349 350 349 349 349 350 353 351 353 353 352 350 349 347 347 345 352 348 348 351 353 352 351 349 350 351 350 347 347 351 353 351 348 346 342 337 336 335 333 333 331 330 329 328 328 327 326 324 321 320 323 326 323 322 323 324 325 325 326 331 339 340 341 342
349 349 349 347 347 347 349 351 351 352 351 351 351 351 348 350 352 349 347 349 351 349 347 346 347 346 347 347 346 349 353 352 350 347 346 344 346 346 345 345 353 356 354 349 343 341 338 336 333 330 330 330 329 328 327 327 327 326 322 321 322 322 322 323 322 321 322 324 323 324 328 334 337 341
350 349 348 348 348 348 349 351 350 349 349 351 351 352 350 352 351 348 348 345 345 345 347 346 346 343 344 345 349 353 351 350 349 350 348 346 342 342 341 345 345 349 354 350 347 342 339 336 335 331 331 332 330 330 330 331 330 327 324 323 326 324 322 322 322 322 321 321 321 322 322 326 333 336
350 350 349 349 350 353 360 360 357 356 356 351 349 352 353 352 351 350 347 348 345 344 345 346 346 344 346 346 346 346 344 348 350 346 345 343 343 343 344 347 348 349 347 351 348 345 339 334 333 331 331 332 332 331 331 331 330 328 324 324 325 324 322 321 321 321 321 320 320 320 322 321 323 328
349 350 350 353 359 362 363 362 362 362 365 366 357 355 355 352 350 349 348 345 345 345 344 344 345 344 344 345 345 344 345 347 345 344 341 340 342 343 344 345 346 350 350 349 345 346 344 338 334 333 331 332 337 329 329 327 327 327 324 324 324 324 323 321 320 319 320 320 320 319 319 320 321 321
349 350 351 350 360 364 363 359 360 359 363 368 367 366 366 362 352 348 347 346 346 346 346 346 345 345 345 346 346 345 347 348 349 347 343 345 342 340 337 336 343 351 349 346 344 344 346 340 334 333 332 332 331 328 326 330 328 325 325 324 324 323 324 324 323 321 319 320 320 320 319 319 320 320
350 349 351 352 354 352 351 350 351 355 360 366 366 365 365 366 365 361 352 348 346 346 347 346 347 346 346 346 344 345 345 346 346 348 347 344 343 341 339 335 338 344 353 346 343 343 347 342 337 333 333 334 329 327 325 327 324 324 324 324 322 322 322 322 323 322 321 321 322 322 321 321 321 319
350 350 350 353 351 352 360 360 352 349 353 362 366 366 365 365 363 350 348 354 357 351 348 347 347 348 347 346 347 349 347 350 346 345 346 346 344 344 341 341 342 346 354 349 346 346 347 342 343 337 338 332 328 326 327 327 325 324 323 323 322 322 322 321 321 322 322 320 318 317 319 321 320 319
349 350 349 350 352 350 354 352 351 352 351 352 352 354 354 355 360 361 356 353 352 354 354 351 348 350 349 349 349 354 354 350 348 345 345 346 346 346 346 347 347 349 355 350 345 342 345 347 344 342 340 329 326 324 323 325 325 323 322 321 321 321 321 321 320 319 319 319 318 318 317 317 317 318
349 350 352 350 350 348 349 354 355 349 349 350 353 352 351 350 351 353 353 353 356 355 353 354 354 355 355 353 352 351 350 351 348 349 350 350 349 348 348 347 349 351 354 351 346 341 342 350 347 345 332 326 323 322 321 323 323 323 321 321 320 320 320 320 320 318 318 318 317 318 317 317 317 317
350 351 349 346 345 345 343 344 342 349 349 347 349 350 350 351 353 353 359 349 349 359 356 355 355 355 355 346 350 349 347 347 347 351 352 348 347 346 345 344 347 348 351 349 348 342 339 348 348 344 327 325 321 322 321 323 324 323 322 321 320 319 318 319 319 319 318 317 317 316 315 315 314 314
348 349 348 347 346 342 339 334 324 333 352 346 347 346 347 348 349 350 354 347 342 338 333 331 332 332 331 332 331 329 331 341 346 347 345 344 347 344 341 343 343 343 347 339 339 339 334 341 348 337 325 325 323 320 319 320 323 323 322 321 320 319 317 318 318 318 318 317 317 315 315 315 315 316
345 348 354 343 332 330 330 323 322 327 344 344 343 343 342 341 342 344 344 341 341 339 338 338 336 334 333 333 335 336 333 331 339 344 341 345 345 341 341 338 339 341 341 340 341 336 334 339 344 333 328 332 326 322 319 320 320 322 320 319 319 319 319 318 317 318 318 318 316 314 314 314 316 317
335 334 339 340 335 330 325 318 320 325 336 333 333 335 335 335 335 337 332 332 333 335 337 338 340 343 346 350 348 348 350 349 352 347 345 346 344 341 340 340 340 338 339 336 337 332 332 332 332 332 326 325 331 323 322 323 318 320 323 321 319 318 319 318 318 316 317 318 317 315 314 315 316 319
331 331 329 330 323 318 317 314 314 316 323 331 332 333 332 331 331 333 331 334 336 336 336 335 336 337 338 340 344 347 348 351 353 351 350 349 346 343 342 341 341 338 335 329 332 330 336 335 332 336 332 328 323 324 323 320 319 320 320 321 318 319 321 321 318 315 313 314 316 315 314 315 318 321
327 327 328 328 327 317 315 313 311 311 318 327 334 332 332 333 331 329 329 333 340 335 335 336 337 337 338 338 339 341 344 346 345 338 336 337 337 337 338 338 338 338 325 325 329 333 331 328 325 326 324 324 328 323 324 321 321 322 323 322 318 320 320 319 320 317 313 312 311 312 313 316 319 322
324 326 328 331 325 314 313 310 309 311 315 322 334 329 317 316 319 328 335 334 334 334 335 336 336 337 337 337 337 340 343 338 335 333 332 331 330 329 329 331 333 325 319 323 328 332 330 323 325 324 324 323 323 326 322 324 325 322 324 322 322 320 319 321 323 320 318 320 317 314 315 314 318 320
324 326 327 329 324 311 307 307 312 315 321 330 323 314 318 321 325 335 335 335 334 334 335 335 335 336 336 336 336 335 329 330 330 328 327 327 327 327 326 324 323 320 322 321 324 325 325 323 326 322 322 324 323 324 322 319 321 328 326 325 326 322 321 320 320 322 322 318 316 314 313 314 317 317
327 324 324 325 312 309 306 311 316 317 323 324 313 316 321 326 331 332 331 330 331 334 333 330 327 326 327 327 325 326 327 327 327 327 327 325 324 323 324 326 328 325 322 320 320 319 320 320 320 321 322 322 321 320 319 324 324 323 323 328 328 323 321 324 324 329 322 318 317 317 317 316 317 315
324 318 312 312 313 315 316 319 322 324 326 320 319 319 324 334 330 329 328 329 329 327 327 326 326 326 327 326 327 327 327 329 328 327 326 327 326 326 326 327 330 329 325 325 322 321 321 322 320 320 324 324 323 324 323 321 323 322 326 323 322 325 326 325 322 320 320 318 316 317 316 316 315 315
319 318 318 319 322 324 327 332 331 330 330 326 327 328 331 329 330 329 327 327 326 325 325 325 324 324 326 327 329 331 330 329 328 327 325 325 325 326 325 324 324 327 330 330 329 329 327 325 325 324 322 324 325 321 321 321 319 321 327 322 322 326 324 323 323 325 325 320 320 319 318 318 316 315
326 332 332 328 323 323 325 328 328 329 330 329 326 326 326 327 328 329 328 326 325 326 323 323 323 324 325 327 328 326 326 327 328 331 330 327 327 327 326 324 322 324 327 330 330 326 327 326 326 323 320 321 322 321 322 322 319 321 322 323 321 315 319 319 320 320 320 320 320 320 321 320 320 319
330 332 331 329 335 334 331 329 328 327 326 327 326 324 324 324 327 328 329 328 324 323 324 323 324 324 324 324 324 324 324 324 326 328 328 325 323 324 322 319 318 319 319 321 322 325 328 325 325 324 323 322 319 320 320 318 318 318 318 319 319 318 319 317 316 317 319 318 317 316 315 315 313 313
327 326 326 326 325 325 325 325 324 324 323 323 322 323 322 322 322 323 323 321 322 323 323 322 322 322 323 322 323 322 320 321 321 324 324 323 320 319 319 316 316 316 316 317 319 320 320 320 325 326 323 322 322 320 318 316 316 316 315 314 315 314 315 316 317 317 319 317 315 313 312 313 313 313
321 321 321 321 321 321 321 321 321 322 322 321 319 319 320 320 319 319 320 320 320 321 320 320 320 320 320 320 321 320 319 319 319 319 320 319 319 317 315 313 313 315 316 316 317 318 319 319 320 323 321 320 319 318 319 317 315 316 315 314 313 313 315 315 314 315 317 316 314 311 310 311 313 313
319 318 318 318 319 319 319 319 319 319 319 319 318 317 316 316 317 317 316 316 318 318 317 317 318 318 317 317 318 317 317 317 316 316 317 317 315 315 316 313 314 314 315 316 317 318 318 316 316 316 320 321 318 317 321 320 315 314 314 313 314 314 315 317 314 312 314 315 315 312 311 311 312 313
316 316 316 317 317 317 316 317 318 317 317 316 315 315 315 314 315 315 314 314 315 315 315 315 316 316 316 316 316 316 317 317 315 315 314 313 313 313 315 316 316 314 315 315 315 316 315 312 312 311 311 314 315 313 311 318 319 317 313 313 314 313 313 313 314 312 310 310 313 311 310 309 310 312
314 314 315 315 315 315 314 314 314 315 315 314 314 314 313 312 313 313 314 314 314 314 314 314 314 314 314 315 315 315 315 314 312 313 312 312 312 311 310 313 314 314 313 313 315 314 313 312 311 309 307 308 310 309 311 314 315 315 315 316 317 316 312 311 310 310 310 310 309 310 310 311 310 310
313 313 313 313 313 313 314 314 314 313 313 313 312 312 312 311 311 311 313 312 312 312 311 311 312 313 313 314 313 313 313 313 313 311 312 311 309 308 309 309 309 310 311 311 313 313 312 311 311 311 308 307 307 306 309 312 313 314 311 314 316 316 315 310 309 308 308 310 309 310 311 311 310 309
313 313 312 311 311 311 311 312 312 311 311 311 310 309 309 308 308 309 309 310 310 310 310 310 309 310 310 310 312 312 310 309 309 310 310 310 311 309 309 309 309 310 310 310 310 311 312 311 311 310 309 307 306 308 308 307 308 313 313 306 314 313 312 309 308 309 307 307 307 308 308 309 312 313
315 314 313 312 311 310 310 310 309 309 310 310 309 308 308 309 308 308 308 309 308 309 309 310 310 308 308 308 308 308 308 307 307 307 308 307 309 309 309 310 310 308 308 309 308 306 306 308 312 309 309 307 307 308 310 311 310 312 313 310 307 313 313 310 309 308 308 308 307 305 305 306 304 306
314 312 312 312 311 311 310 309 308 309 308 307 308 311 308 307 307 307 308 309 310 307 306 305 306 306 306 306 306 307 306 306 305 306 308 306 307 307 309 309 304 304 305 305 305 305 305 305 314 316 314 311 311 310 308 305 304 305 307 310 308 308 310 312 310 309 308 310 307 305 304 302 301 302
311 310 309 309 310 310 309 309 308 308 307 307 306 306 307 307 308 309 307 308 304 306 304 304 305 306 304 303 303 305 304 304 303 303 306 303 302 302 307 305 302 303 303 303 303 304 307 307 312 311 309 309 308 303 303 304 304 304 305 308 313 311 308 310 311 311 311 308 306 304 304 303 303 302
311 308 308 310 308 307 306 306 305 306 305 306 306 306 304 302 301 301 301 300 300 301 301 302 302 302 302 302 302 304 303 302 302 302 302 302 302 300 301 302 303 303 303 305 304 307 306 305 305 306 306 305 308 308 303 305 305 304 304 304 307 310 310 310 308 308 309 311 310 308 305 303 300 298
308 307 306 305 304 303 303 303 302 303 303 302 303 302 302 300 299 300 299 299 299 299 300 300 300 299 300 302 303 301 302 302 303 303 303 303 303 302 303 304 306 304 302 303 303 302 301 302 303 305 304 303 305 303 304 304 304 307 305 304 307 304 305 310 310 309 310 311 309 309 309 308 307 307
308 306 305 304 304 303 302 302 302 301 301 301 301 300 301 299 300 298 298 299 299 299 299 299 299 299 300 302 301 300 302 307 304 302 303 303 302 303 303 304 304 302 300 301 299 299 300 299 300 302 302 304 306 305 306 308 306 308 305 304 304 305 305 309 305 304 306 307 309 310 309 310 310 310
Wind_Speed
5 4 4 4 4 5 4 3 1 3 3 3 4 4 6 5 2 2 2 3 3 3 2 1 2 2 3 5 4 4 4 6 7 5 4 4 4 7 9 11 4 9 9 7 6 4 3 2 2 2 4 5 6 6 7 7 8 10 11 10 9 9 9 9 6 7 8 8 8 7 5 7 6 5
4 4 3 3 5 4 4 5 4 1 3 3 3 5 4 5 6 5 3 5 4 3 2 2 1 1 3 4 5 3 5 7 7 5 3 4 4 8 11 5 7 10 10 8 7 6 4 4 3 2 4 5 5 5 6 7 8 9 10 10 9 7 8 7 3 8 8 7 7 7 6 8 6 5
4 4 4 4 5 4 4 4 3 3 1 1 3 4 4 5 6 6 4 2 4 3 3 3 2 2 3 3 2 2 3 2 2 3 3 3 7 10 4 5 10 11 10 9 8 7 5 6 3 2 4 4 4 4 6 7 8 9 9 9 8 7 5 5 5 7 8 8 7 6 6 7 7 6
4 4 4 4 4 4 4 4 4 3 3 3 4 1 3 5 5 3 4 5 6 3 4 4 4 3 2 3 1 2 3 2 4 3 3 4 7 4 1 6 8 10 10 9 9 8 6 7 4 3 3 3 4 5 6 7 7 8 9 9 9 8 6 3 4 5 9 9 9 7 6 6 7 7
5 5 4 4 4 3 4 5 5 5 4 5 3 2 2 3 3 5 5 5 6 4 3 4 3 2 2 2 1 2 3 4 5 4 3 4 3 3 3 1 6 9 9 9 8 8 8 7 5 4 2 2 3 4 6 7 7 7 8 9 9 8 7 5 2 4 7 11 10 9 7 8 8 8
6 5 5 6 5 4 4 5 5 5 5 4 3 2 2 2 3 3 4 5 3 5 3 3 2 2 1 2 1 2 4 4 3 5 4 3 2 2 2 3 3 6 6 7 8 8 8 8 7 5 3 1 2 3 6 6 6 6 7 8 8 8 8 7 4 1 3 9 10 10 9 8 7 8
6 6 6 6 5 5 4 5 5 4 4 3 3 3 2 2 2 3 4 3 4 4 5 3 2 1 2 1 3 3 3 3 3 3 3 2 2 2 2 3 3 4 6 7 7 8 9 9 8 6 4 1 1 2 3 5 5 6 5 6 8 9 9 8 7 4 0 3 10 10 10 8 7 9
6 7 6 5 4 4 5 6 5 3 2 2 2 3 2 1 3 3 3 5 5 4 4 3 2 2 2 3 3 4 3 2 3 2 2 1 2 1 2 2 2 3 6 6 6 7 8 9 9 7 4 2 2 1 2 4 5 5 5 6 6 8 9 8 7 7 6 3 4 10 11 10 8 8
4 1 2 4 5 4 6 7 5 4 4 4 3 4 3 3 4 3 2 4 3 3 4 4 2 2 2 3 4 3 3 4 2 2 2 0 0 1 1 2 2 4 5 5 4 4 6 8 9 8 6 4 2 1 2 4 4 5 5 5 6 7 9 8 8 8 6 6 4 3 9 9 9 8
5 7 7 3 2 3 4 7 7 4 4 3 4 4 4 4 3 3 3 2 2 2 4 3 3 2 4 3 3 3 1 4 4 3 3 1 1 0 0 0 2 3 3 3 2 2 3 5 7 8 6 5 3 1 2 4 4 5 5 5 5 7 7 7 7 7 7 6 6 4 3 8 7 7
6 6 5 5 5 6 6 6 6 5 3 3 4 5 5 4 3 4 4 3 3 3 3 3 4 4 3 3 4 4 1 2 2 3 3 3 2 1 1 2 2 3 4 4 5 5 5 5 4 6 6 5 4 3 3 3 4 4 4 4 4 5 6 6 6 7 6 6 6 5 4 2 5 5
6 7 7 7 7 7 5 2 6 5 6 6 4 5 3 4 4 5 4 3 3 4 3 4 5 3 4 3 2 2 2 2 3 3 3 5 5 5 2 3 3 2 3 4 4 3 3 3 3 4 3 4 4 4 3 4 3 2 3 4 4 4 5 6 6 6 6 6 6 6 5 4 1 2
7 7 7 7 7 6 5 9 12 11 11 7 6 5 4 4 5 4 3 4 3 4 4 5 4 4 5 5 4 5 3 4 6 2 2 3 4 4 5 5 3 4 3 3 4 5 5 5 4 3 3 4 5 4 4 3 3 2 2 3 3 4 4 5 5 6 6 6 6 6 6 5 4 3
6 6 6 6 10 8 9 10 10 12 14 10 7 6 6 6 5 5 5 5 5 4 5 6 5 5 6 6 5 4 4 4 1 1 2 3 3 2 4 5 4 4 4 4 5 5 5 5 4 4 5 4 5 4 4 2 2 3 2 1 2 3 4 4 5 5 5 6 6 6 7 6 6 6
7 6 7 5 7 8 9 8 11 12 12 11 9 9 9 8 7 5 6 6 5 5 5 5 4 6 7 7 4 5 6 3 4 4 2 5 3 3 3 5 4 1 5 4 3 5 5 6 7 6 5 5 5 4 4 5 5 5 4 2 1 1 2 3 4 4 5 5 6 7 7 7 7 7
7 7 5 5 5 5 6 6 5 6 9 9 9 9 9 10 12 9 7 6 4 4 6 6 7 5 7 6 4 5 3 5 4 5 5 5 5 5 5 3 4 3 5 5 4 5 5 6 6 5 6 5 5 5 7 7 6 6 4 3 2 0 1 2 3 4 4 6 6 6 7 7 7 8
6 6 5 1 1 4 10 7 3 2 3 7 8 8 9 9 10 9 8 7 5 3 5 6 7 7 5 5 6 3 2 3 5 4 5 4 5 6 6 6 5 5 5 4 4 5 4 7 7 7 6 6 5 5 7 8 7 6 5 4 3 2 1 1 2 3 4 5 7 7 8 8 9 9
6 6 7 7 5 4 3 1 0 1 2 3 4 4 3 4 6 9 8 9 10 7 7 6 8 7 3 6 4 3 3 4 6 5 6 5 5 5 7 5 5 3 4 7 3 4 4 7 7 8 6 6 5 5 8 9 7 6 6 5 5 4 2 1 1 1 3 4 6 8 9 10 11 11
5 5 5 5 4 2 2 2 2 3 3 2 3 3 4 4 5 4 5 4 3 5 6 7 7 7 5 5 5 4 2 2 2 3 6 6 5 5 4 5 5 6 6 6 5 7 4 5 7 8 5 6 5 4 6 8 7 7 5 4 4 3 2 2 1 1 1 3 6 8 10 13 14 14
3 3 4 7 5 1 3 6 6 4 1 2 2 2 3 3 3 3 4 6 7 7 6 5 6 5 4 4 4 4 3 3 3 5 6 4 4 5 7 9 5 6 3 6 7 6 5 3 8 6 4 5 6 4 5 7 7 6 5 4 3 2 1 2 3 2 2 3 6 8 10 13 15 15
3 2 4 4 4 5 4 7 7 8 5 3 2 2 3 3 3 4 3 5 7 8 9 10 10 10 10 10 9 8 6 5 4 4 6 7 5 7 8 7 5 7 3 1 4 1 6 5 6 4 4 6 6 7 5 4 7 7 6 5 3 2 1 4 5 5 3 6 8 9 10 13 14 16
2 4 12 8 5 5 5 6 7 8 4 3 3 3 3 4 4 4 5 5 6 10 11 11 11 10 10 9 9 9 9 7 5 4 7 6 3 6 6 6 5 6 4 3 4 2 8 3 2 3 2 2 2 4 4 4 5 6 5 4 4 3 1 2 5 6 4 7 9 9 10 10 10 8
5 6 10 13 9 6 4 6 6 7 5 4 3 3 3 3 4 3 5 6 8 7 7 7 8 8 8 7 5 6 10 10 9 7 8 6 8 8 8 7 6 6 4 3 5 5 5 3 3 4 4 3 1 5 5 6 5 5 3 3 2 2 2 1 3 5 5 6 9 11 10 9 8 6
6 6 6 8 9 9 8 8 7 7 6 4 3 2 2 3 4 4 5 6 7 6 6 7 6 7 7 7 7 6 6 7 6 6 7 7 8 8 7 6 6 7 2 4 7 1 3 1 2 3 5 4 5 5 5 5 5 4 5 4 3 4 4 2 2 4 6 4 8 10 11 10 8 6
7 7 6 5 9 8 9 7 6 5 5 3 2 2 2 3 6 7 5 6 10 6 7 8 6 6 6 5 5 6 5 6 1 3 3 3 3 3 4 4 4 2 4 5 10 1 2 4 3 4 3 2 3 5 4 5 4 5 5 5 5 4 4 3 2 2 4 5 4 8 10 12 10 7
8 6 4 4 6 8 7 5 4 5 4 2 4 4 4 7 6 4 5 5 5 5 6 6 6 6 6 5 5 6 3 4 6 5 6 6 6 5 3 1 3 2 4 7 9 2 2 4 5 3 4 5 4 2 6 3 4 5 5 6 5 5 5 5 4 3 2 1 2 0 6 11 10 9
5 4 3 3 5 5 6 7 6 8 7 6 5 6 8 8 8 6 3 4 4 5 5 6 6 5 6 6 5 6 6 6 6 7 7 7 7 7 7 8 7 7 2 4 7 7 6 4 5 7 3 3 3 4 3 4 2 2 5 6 5 5 4 4 5 4 4 4 4 7 9 8 10 11
3 3 4 4 4 7 8 8 8 9 8 7 10 11 10 9 7 5 5 5 5 5 5 6 7 7 7 7 7 6 5 6 6 7 7 7 7 7 6 6 7 5 6 6 7 7 6 6 5 5 4 3 3 3 2 4 3 2 4 2 4 4 4 4 4 5 5 4 4 5 7 6 7 9
3 3 3 5 8 9 10 11 9 9 11 13 12 12 11 10 6 7 6 6 6 7 7 6 6 7 7 6 6 4 5 6 6 7 7 6 6 5 5 5 5 5 4 4 6 6 6 6 5 4 4 3 4 1 2 0 1 2 3 6 5 2 4 4 5 6 5 3 3 4 6 7 5 5
5 6 9 12 12 12 8 8 7 7 8 12 12 12 11 7 7 6 6 6 7 7 7 8 8 7 6 6 5 6 5 6 6 5 5 5 5 5 5 6 7 4 2 1 2 2 2 3 3 2 2 3 1 1 1 1 3 3 4 7 7 5 4 5 5 3 4 4 4 4 2 3 5 5
6 9 10 9 10 9 11 11 10 8 8 7 7 7 7 7 7 7 7 7 7 7 7 7 6 6 5 5 6 6 6 6 5 4 3 4 3 4 4 5 5 4 5 4 3 3 3 2 1 2 3 2 1 2 2 3 5 6 6 4 4 5 1 4 4 4 4 5 4 4 4 4 4 4
7 7 7 8 7 6 7 6 5 6 6 7 6 7 6 7 8 9 12 10 7 6 5 5 5 6 6 7 6 7 7 7 6 6 6 5 6 6 5 5 6 6 6 7 7 7 6 4 3 3 2 0 1 1 3 6 6 7 7 6 7 5 5 4 3 4 3 5 6 5 4 4 4 4
7 7 8 7 8 7 6 6 6 6 6 7 7 7 7 7 7 7 7 7 7 7 7 8 7 6 6 7 6 6 7 7 6 6 6 6 6 5 6 7 6 6 7 7 6 8 8 9 7 5 4 5 5 3 3 7 5 5 7 6 6 5 4 4 4 3 3 7 6 5 5 4 4 3
7 7 7 7 7 7 6 6 7 6 6 6 6 7 7 7 7 7 7 7 7 7 7 7 7 7 6 7 7 6 6 6 7 7 6 6 5 6 6 5 5 4 5 6 6 7 6 7 6 6 5 5 6 8 6 6 5 5 5 4 5 5 3 3 3 3 3 4 6 6 5 4 4 4
8 7 7 6 6 6 6 6 6 6 6 6 6 6 6 7 7 7 7 7 6 7 7 7 7 7 7 7 7 7 6 6 6 6 5 5 5 5 5 5 5 5 5 6 6 6 6 6 5 3 2 2 4 6 9 7 5 5 4 4 4 4 3 2 4 5 5 5 4 7 4 4 4 3
8 7 7 7 7 7 7 7 6 7 6 6 6 5 6 7 7 7 7 6 6 6 7 7 7 7 6 6 6 6 6 6 6 6 6 6 6 5 5 5 4 4 4 5 4 5 5 5 5 4 4 3 2 3 4 8 7 1 3 3 2 4 3 4 4 4 5 5 4 4 4 4 3 3
8 7 7 7 6 6 6 6 6 6 6 6 6 6 6 6 6 6 7 6 7 7 6 6 6 6 6 6 6 6 6 6 6 5 6 6 5 5 6 5 5 4 4 4 3 3 3 4 4 5 4 4 3 2 1 2 5 6 4 2 1 2 5 5 5 6 4 4 4 2 3 5 4 3
7 7 7 6 6 5 5 5 5 6 6 6 6 6 6 5 5 6 6 7 7 6 6 6 6 6 6 5 5 5 5 4 4 5 5 5 5 5 5 4 4 4 4 4 3 3 2 3 3 2 4 4 2 2 2 3 3 4 5 3 1 3 4 6 5 5 3 3 4 2 2 5 4 5
7 7 6 6 5 5 5 5 5 5 5 5 6 5 5 5 5 5 6 6 6 6 5 6 6 6 6 6 6 5 5 5 5 5 5 4 4 4 4 4 4 4 3 3 4 4 4 4 3 2 2 3 2 1 2 2 2 2 3 2 1 2 2 5 5 4 4 3 3 4 5 4 6 8
5 5 5 5 5 5 5 5 5 5 5 5 4 4 4 5 5 5 6 5 5 5 5 5 5 5 5 5 5 4 4 5 5 5 5 5 5 4 4 4 4 4 4 4 4 4 4 4 4 3 1 1 3 3 2 1 2 2 3 4 6 1 4 5 4 5 4 4 5 5 4 2 3 0
5 5 5 4 4 4 5 4 4 5 5 4 3 4 5 4 5 6 5 6 5 6 5 5 5 5 5 5 5 5 4 4 4 4 4 4 4 4 5 5 3 4 3 2 2 3 4 4 6 8 4 2 2 1 1 1 1 1 2 3 7 7 1 6 5 3 3 4 5 5 5 5 4 3
5 5 5 5 5 4 4 4 4 4 4 4 5 5 5 6 7 9 7 7 7 6 6 5 5 5 5 5 5 5 5 5 5 5 5 5 5 5 5 3 4 3 2 2 2 2 4 4 4 4 4 4 3 3 1 0 0 1 0 1 2 3 5 5 3 2 5 6 5 3 2 3 3 2
5 5 6 5 5 6 5 6 5 5 5 5 6 6 6 6 6 7 6 6 6 6 6 6 6 6 6 6 5 4 5 5 4 5 5 5 5 5 5 5 4 3 2 2 2 2 4 5 4 5 5 2 0 0 0 1 1 2 1 1 2 2 1 4 6 6 4 3 4 2 2 3 5 3
5 6 5 5 6 5 5 5 5 5 5 5 5 5 6 5 6 6 5 6 6 6 5 6 6 6 6 6 6 5 5 5 5 5 5 5 4 4 4 4 3 3 4 4 4 5 5 5 5 4 4 3 2 1 1 1 2 2 2 2 1 1 1 1 1 4 4 3 2 2 2 4 5 7
5 6 6 5 6 5 5 5 5 5 5 5 5 6 5 5 5 5 6 6 6 6 6 6 6 6 6 6 6 6 6 5 5 5 5 5 4 3 3 3 2 3 4 4 4 5 5 5 5 5 3 3 1 1 2 0 1 1 2 2 3 3 1 0 1 2 0 2 5 4 5 4 3 1
Wind_Direction
275 273 271 274 283 295 295 292 231 205 240 221 192 185 193 172 184 260 283 276 244 299 206 212 296 300 291 284 281 276 263 266 268 274 264 262 265 265 258 254 222 156 155 163 157 173 218 124 75 8 16 25 26 13 4 5 358 355 354 4 22 49 40 26 138 150 166 167 162 165 164 148 161 175
262 253 280 289 298 289 304 286 283 202 196 185 192 205 210 168 204 202 215 266 227 257 298 216 256 317 294 276 282 262 269 270 275 267 266 258 266 273 271 285 161 160 161 163 156 159 176 121 84 35 28 28 24 15 10 13 7 360 356 359 12 40 54 36 81 156 162 171 169 163 158 156 164 170
251 267 279 287 290 282 271 278 291 296 300 245 182 207 213 209 221 212 183 230 283 197 254 288 254 257 284 296 320 323 298 300 349 353 332 307 298 298 326 143 165 163 165 162 155 154 155 118 111 68 43 19 23 23 26 26 20 8 0 358 7 11 47 59 54 149 156 166 168 171 163 168 169 156
255 261 266 268 263 275 293 285 270 269 277 267 289 278 204 220 217 189 177 203 256 253 222 246 280 280 284 300 18 326 330 328 357 358 335 317 317 346 1 148 162 166 162 158 151 140 150 125 133 95 54 20 19 25 36 30 25 18 6 3 3 6 354 9 93 112 159 160 172 174 177 181 179 154
258 253 253 257 263 275 290 278 281 283 277 281 289 267 245 254 190 173 187 206 255 290 242 238 253 299 348 321 354 358 330 332 338 347 335 327 358 19 31 87 159 164 161 154 144 143 144 130 133 109 90 4 13 34 41 34 25 22 12 5 4 358 4 343 125 118 156 169 169 170 179 187 188 166
251 248 249 261 262 256 253 263 260 248 272 292 297 286 210 226 228 212 177 221 220 262 315 310 310 313 7 311 297 307 318 319 332 337 331 331 17 37 60 86 139 164 157 149 146 146 135 132 130 116 117 53 31 32 48 44 34 33 26 10 357 1 9 2 321 151 129 170 175 172 174 184 194 173
239 240 246 257 266 271 269 264 260 271 272 267 226 239 260 230 251 212 208 187 237 251 271 255 284 279 303 239 279 294 265 279 297 305 307 332 16 29 95 112 125 163 164 157 154 148 134 135 125 119 123 117 68 45 49 55 41 36 19 13 12 13 15 12 351 307 313 164 176 173 172 177 183 173
228 230 237 260 288 297 282 272 274 271 246 201 191 199 235 221 250 251 197 211 210 224 236 291 223 255 256 289 278 271 285 295 302 278 284 34 32 12 67 111 126 168 169 168 168 151 138 132 124 125 124 110 89 58 61 62 55 41 30 25 20 22 22 16 19 353 331 320 183 183 175 177 177 181
216 165 207 223 232 240 260 264 249 226 208 212 201 212 235 225 238 256 221 212 205 200 226 266 278 280 284 263 282 279 288 315 323 328 333 286 28 25 34 100 111 143 173 174 176 151 146 133 128 132 137 139 146 122 78 62 48 46 40 35 37 39 32 29 22 17 1 343 337 187 184 179 177 176
166 204 225 231 266 285 276 266 257 235 215 193 202 213 227 234 227 229 247 245 222 217 241 236 294 324 268 305 288 279 255 273 301 326 326 358 338 348 54 172 158 173 174 170 160 170 164 139 134 139 139 146 152 161 88 63 48 43 39 42 48 54 46 36 29 24 19 13 0 351 202 186 179 176
203 211 220 214 207 224 238 254 251 233 199 200 210 213 217 226 201 206 221 231 231 224 239 259 236 265 276 233 278 301 301 257 241 265 315 310 281 279 222 254 239 192 184 193 190 186 189 171 161 146 139 148 158 158 115 85 62 38 32 29 41 59 63 54 49 38 34 30 23 22 20 191 188 188
207 210 214 219 227 231 243 326 334 326 252 235 225 224 214 215 208 225 229 229 227 240 246 242 263 235 258 295 261 297 359 330 305 228 221 259 285 289 270 227 235 231 191 182 188 190 165 165 150 145 141 172 166 152 129 111 94 65 29 28 33 37 51 69 63 56 47 43 41 39 40 38 44 202
215 222 222 223 220 221 204 179 203 204 219 219 218 231 205 205 205 220 229 233 235 250 249 268 258 273 280 269 281 298 290 250 250 265 186 254 266 285 308 289 234 206 183 196 182 193 188 179 206 183 195 210 200 185 149 127 124 119 74 41 38 33 41 42 60 65 60 52 47 47 45 44 50 56
209 216 223 228 228 206 187 192 205 229 236 220 204 203 192 198 197 210 219 223 225 230 250 250 251 263 261 263 250 252 253 256 287 319 214 246 274 335 282 284 261 187 175 177 206 213 186 184 198 192 218 216 189 168 163 178 182 186 173 114 38 17 20 43 48 52 60 62 57 53 49 46 41 39
207 213 219 214 207 191 200 201 213 238 258 235 215 205 201 198 196 208 218 231 224 231 241 247 243 241 256 257 242 241 255 251 229 234 210 239 259 260 270 284 314 182 175 194 212 230 198 180 194 205 211 206 171 167 165 160 178 190 187 172 150 357 1 10 32 49 64 63 62 59 58 54 51 45
205 208 204 199 193 203 218 219 235 251 271 259 243 239 234 234 229 217 207 226 234 225 239 250 243 238 244 257 241 254 251 261 267 254 243 238 237 247 239 233 237 260 178 190 208 245 194 191 200 200 211 198 186 177 161 168 190 192 184 176 164 232 316 359 9 15 44 71 69 69 65 64 63 62
204 190 187 232 228 231 221 223 226 254 286 286 274 262 262 263 265 264 264 259 249 237 241 250 258 240 249 259 255 228 237 229 257 256 245 239 238 235 247 237 245 263 186 196 233 253 207 184 200 216 208 188 179 160 163 175 188 187 176 172 170 175 224 330 7 354 4 51 71 71 73 74 72 69
203 191 170 190 195 206 231 125 119 341 287 294 292 292 289 274 280 279 262 259 262 264 264 260 261 266 231 253 262 261 270 276 271 269 258 257 257 248 244 250 244 246 170 199 202 261 231 190 195 216 201 177 171 177 172 178 191 181 170 169 158 154 168 167 92 11 2 35 65 74 76 77 76 75
201 198 192 179 171 139 106 72 67 55 15 4 333 312 291 292 280 282 295 288 270 246 242 251 259 271 269 262 269 272 296 287 286 275 280 276 273 281 290 288 257 260 212 216 187 243 234 181 197 211 175 169 169 176 168 181 189 179 168 172 150 128 148 152 119 84 57 69 74 78 82 83 81 79
42 49 68 83 79 27 61 43 39 27 57 57 19 348 334 327 318 299 294 282 270 270 264 260 265 276 295 322 302 304 310 303 290 296 291 281 259 263 265 262 267 257 228 199 212 234 248 199 198 199 149 150 169 177 169 193 195 180 163 167 147 103 17 43 80 69 84 101 92 82 86 90 88 84
354 58 84 73 100 96 67 46 28 6 24 59 37 355 327 308 306 300 297 316 334 340 328 313 298 284 279 274 274 274 253 247 267 284 285 273 257 250 256 261 258 260 261 303 247 290 278 227 204 156 165 171 174 183 183 176 198 180 167 166 168 139 23 358 10 26 69 113 102 91 95 98 96 94
337 57 112 94 86 79 64 37 43 12 24 49 29 359 338 326 320 325 0 342 326 326 320 308 298 291 284 280 274 266 261 244 216 214 252 270 256 251 248 265 264 275 285 235 90 303 247 237 180 115 122 109 85 158 193 198 183 173 166 171 182 163 122 4 1 24 59 126 118 108 107 100 97 91
74 59 61 72 71 77 69 65 59 41 54 72 39 22 353 330 317 341 342 322 316 317 318 319 321 311 307 297 278 261 257 237 219 206 233 254 254 259 259 267 278 279 272 51 41 239 260 126 222 138 134 196 177 177 188 186 177 171 157 157 200 192 138 30 18 33 50 135 133 129 124 114 105 100
101 66 62 51 55 50 34 19 25 41 40 69 58 42 39 344 303 321 317 303 299 302 308 302 305 298 302 297 297 288 267 257 250 227 225 231 238 241 244 242 245 254 311 351 14 298 298 352 236 194 233 171 189 184 173 189 180 168 153 153 183 194 152 134 63 63 57 103 152 148 142 136 129 117
95 75 64 47 25 31 53 43 1 22 27 39 66 43 7 322 305 311 295 299 310 305 301 305 300 291 287 285 279 283 278 268 288 73 50 49 21 342 298 295 292 307 35 339 330 220 341 31 357 328 314 323 146 145 172 165 166 169 171 169 178 178 159 157 129 107 75 72 111 164 167 154 150 140
69 68 50 57 22 9 23 31 32 48 52 10 30 5 312 298 304 303 303 294 291 285 293 292 297 294 293 297 289 277 311 23 52 52 54 51 56 47 29 313 283 18 6 336 340 65 104 29 5 14 344 352 352 89 121 151 183 193 157 169 183 179 170 158 149 137 117 84 22 62 187 183 159 139
54 69 79 76 38 33 43 38 47 57 42 49 25 4 3 355 343 336 320 305 303 302 299 295 304 328 336 330 351 25 46 38 45 51 54 58 62 70 66 68 75 101 119 6 31 51 76 69 27 52 28 351 24 348 31 96 160 138 155 172 168 164 171 142 153 122 117 105 96 87 81 114 131 107
15 30 20 10 14 54 50 54 74 62 48 40 29 22 12 18 14 357 354 346 333 343 5 24 29 23 24 36 40 37 43 52 56 63 58 52 49 50 54 61 77 77 67 53 45 46 60 83 55 33 38 17 35 22 39 14 41 72 116 103 122 145 155 140 127 112 115 121 124 103 107 108 113 104
2 352 332 9 37 49 56 61 59 47 38 32 28 25 18 27 25 23 17 18 32 40 39 42 42 45 39 42 49 42 45 50 50 58 55 55 55 52 56 62 58 60 73 72 80 82 79 69 75 26 33 60 76 336 345 109 89 45 114 110 79 85 112 112 101 108 126 136 148 142 141 141 133 130
13 30 55 67 74 70 63 57 52 48 39 35 32 29 29 23 30 31 30 30 41 48 43 42 42 37 28 29 27 33 37 46 46 49 55 52 39 25 30 52 44 31 39 102 122 116 97 101 95 93 52 43 64 160 228 114 60 30 79 93 112 87 56 73 79 96 123 151 182 168 111 93 123 117
27 64 74 89 90 85 71 66 58 55 46 39 34 29 26 27 29 36 38 37 43 45 48 47 41 33 31 33 36 35 38 43 32 20 43 44 41 38 37 54 48 22 8 10 10 10 24 22 77 118 88 43 346 11 346 70 82 81 78 73 72 101 66 55 56 57 68 86 76 81 110 106 102 98
48 61 60 62 57 55 51 50 47 46 44 41 34 35 31 31 35 40 47 49 45 43 45 49 42 35 32 38 33 36 40 36 27 20 39 38 36 18 20 40 24 18 12 13 15 8 9 2 9 15 49 123 62 342 45 72 88 94 86 75 78 65 53 57 44 34 49 100 80 73 63 79 94 94
48 48 51 46 45 37 36 36 37 34 40 40 35 35 34 33 31 33 31 38 34 26 32 33 29 29 30 36 35 44 47 38 32 15 47 37 52 41 49 53 32 19 12 3 1 4 8 9 14 46 51 31 17 15 66 82 52 73 95 91 85 74 54 35 50 53 97 82 87 97 90 67 78 96
59 51 55 47 45 42 35 38 33 24 32 36 35 31 31 33 33 33 33 31 31 33 37 33 37 29 31 34 31 38 44 40 38 32 42 37 27 47 41 45 35 23 20 7 5 6 3 9 19 37 42 42 39 34 35 82 82 61 64 75 82 88 77 80 55 51 72 112 129 113 104 82 62 65
53 47 54 45 42 43 40 35 31 30 31 29 33 35 32 34 30 29 34 21 26 39 39 39 37 37 38 34 27 36 33 35 28 30 27 35 39 41 36 41 21 17 25 22 10 3 17 17 4 357 360 12 38 43 38 37 100 85 82 68 101 115 102 85 85 68 75 72 91 113 102 90 78 51
55 49 51 49 43 42 44 36 35 35 35 28 27 24 32 30 22 27 25 7 29 36 39 37 38 33 30 29 27 27 29 34 31 24 25 21 22 22 25 34 28 18 22 40 35 21 23 32 23 34 29 12 42 45 30 20 40 75 112 142 163 123 110 92 78 82 80 78 76 105 128 151 135 106
64 55 55 51 46 47 50 40 36 35 39 35 30 27 28 29 18 19 9 7 39 35 33 35 35 29 31 26 25 24 22 25 22 17 24 13 13 22 28 17 18 18 29 21 23 38 43 52 41 50 45 31 44 76 47 319 6 21 55 34 101 106 122 105 86 69 59 99 75 97 147 144 148 143
68 63 62 59 53 49 51 48 47 42 40 38 37 35 34 28 27 23 13 32 31 30 26 33 27 20 17 16 25 19 9 2 8 15 12 9 14 13 14 10 1 3 360 0 1 17 26 69 69 91 112 104 80 3 331 327 359 347 36 27 162 141 116 107 103 110 77 38 78 23 53 104 145 161
78 80 78 75 62 55 52 45 49 52 49 49 44 35 31 31 32 32 32 34 32 28 27 32 31 23 18 12 12 17 9 5 7 6 4 359 3 4 360 3 352 346 353 3 6 8 9 20 32 28 55 112 145 208 195 206 280 298 354 348 217 110 95 121 123 131 120 100 73 61 51 60 77 79
82 85 87 85 84 79 75 63 57 54 56 50 50 41 38 36 33 34 31 26 26 23 26 26 19 14 14 12 7 360 10 11 2 351 354 351 350 360 357 357 13 1 7 26 21 7 13 5 349 341 309 210 213 212 199 216 278 333 338 349 2 142 157 137 138 137 116 132 132 100 94 75 99 273
81 75 72 84 86 81 87 86 87 80 68 52 44 45 41 35 37 30 27 20 16 16 17 12 11 11 10 3 360 356 350 354 354 347 348 346 347 350 352 358 15 18 31 29 2 4 353 303 326 2 9 321 326 44 39 36 15 331 356 331 339 4 26 156 149 146 150 152 143 136 147 164 145 138
96 92 82 77 79 67 65 59 39 45 42 40 43 41 36 33 33 34 30 23 16 11 5 3 356 357 358 356 355 356 1 353 348 340 337 344 347 344 342 344 352 353 34 347 333 305 293 316 335 0 357 1 24 60 61 214 272 294 278 280 283 308 354 21 52 108 147 144 129 128 118 86 68 133
104 102 91 81 78 72 70 67 61 60 53 47 43 41 48 47 39 34 29 26 16 17 9 2 357 352 344 338 340 341 342 335 333 332 327 327 329 337 332 325 316 329 334 310 302 316 336 337 351 351 345 21 33 134 227 280 279 259 266 298 287 331 330 44 53 42 57 108 116 149 170 160 138 175
117 102 91 88 86 83 79 79 77 69 70 66 62 56 51 49 41 28 24 20 17 8 360 1 358 357 348 337 334 338 337 325 321 325 319 311 314 313 320 322 339 11 16 10 359 2 348 352 353 347 347 332 309 42 293 310 325 298 283 293 331 22 292 297 14 355 359 9 24 7 310 191 166 159
115 107 105 98 95 89 87 82 81 79 75 70 65 61 53 47 42 30 23 18 14 3 1 357 352 351 343 342 350 347 332 341 345 328 328 325 325 330 334 344 34 45 27 4 20 1 348 343 346 2 356 319 306 260 288 253 268 345 9 11 12 349 322 147 141 181 47 336 315 297 242 253 261 110